Location: ???????????
(54.5822°N, 39.1075°E)
Time: 13:22:29
(UTC+00:00)

ISS - Visible Passes

Search period start: 08 May 2026 00:00
Search period end: 18 May 2026 00:00
Orbit: 414 x 424 km, 51.6° (Epoch: 8 May)

Date Brightness Start Highest point End Pass type
(mag) Time Alt. Az. Time Alt. Az. Time Alt. Az.
8 May -1.9 00:36:11 10° WSW 00:37:57 14° SW 00:39:43 10° S visible
8 May -2.6 18:58:41 10° SSW 19:01:24 23° SSE 19:01:55 22° SE visible
8 May -1.5 20:34:32 10° WSW 20:35:05 14° WSW 20:35:05 14° WSW visible
8 May -2.3 23:50:53 18° SSW 23:50:53 18° SSW 23:52:59 10° SSE visible
9 May -2.2 18:11:41 10° SSW 18:14:00 18° SSE 18:16:19 10° ESE visible
9 May -3.5 19:47:04 10° WSW 19:50:15 42° SSE 19:51:22 30° ESE visible
9 May -1.7 21:23:32 10° W 21:24:24 16° WSW 21:24:24 16° WSW visible
10 May -3.2 18:59:39 10° SW 19:02:45 36° SSE 19:05:52 10° E visible
10 May -3.7 20:35:59 10° WSW 20:39:12 51° S 20:39:12 51° S visible
11 May -2.9 18:12:19 10° SW 18:15:16 29° SSE 18:18:14 10° E visible
11 May -3.7 19:48:27 10° WSW 19:51:43 51° S 19:53:30 23° ESE visible
11 May -2.0 21:25:06 10° W 21:26:27 20° WSW 21:26:27 20° WSW visible
12 May -3.5 19:00:55 10° WSW 19:04:10 48° S 19:07:25 10° E visible
12 May -3.4 20:37:30 10° W 20:40:32 43° SSW 20:40:32 43° SSW visible
13 May -3.3 18:13:25 10° WSW 18:16:37 42° SSE 18:19:48 10° E visible
13 May -3.6 19:49:54 10° W 19:53:09 48° S 19:54:33 28° SE visible
13 May -1.5 21:26:46 10° W 21:27:29 14° WSW 21:27:29 14° WSW visible
14 May -3.6 19:02:19 10° WSW 19:05:35 51° S 19:08:31 12° ESE visible
14 May -2.6 20:39:02 10° W 20:41:26 28° SW 20:41:26 28° SW visible
15 May -3.5 18:14:43 10° WSW 18:17:59 51° S 18:21:15 10° E visible
15 May -3.1 19:51:23 10° W 19:54:30 37° SSW 19:55:22 30° SSE visible
16 May -3.3 19:03:44 10° W 19:06:56 43° SSW 19:09:18 16° SE visible
16 May -1.8 20:40:48 10° WSW 20:42:14 16° SW 20:42:14 16° SW visible
17 May -3.4 18:16:05 10° W 18:19:20 48° S 18:22:35 10° ESE visible
17 May -2.5 19:52:57 10° W 19:55:42 24° SSW 19:56:10 23° SSW visible
